Weather History for Monett, MO

Change the Weather History Date:

Wednesday, April 10, 2013

  Actual Average (KJLN) Record (KJLN)
Temperature  
Mean Temperature 53 °F 57 °F  
Max Temperature 71 °F 68 °F 84 °F (2011)
Min Temperature 35 °F 45 °F 27 °F (1989)
Degree Days  
Heating Degree Days 12 9  
Month to date heating degree days 106  
Since 1 July heating degree days 3868  
Cooling Degree Days 0 1  
Month to date cooling degree days 10  
Year to date cooling degree days 20  
Growing Degree Days 3 (Base 50)    
Moisture  
Dew Point 44 °F    
Average Humidity 94    
Maximum Humidity 100    
Minimum Humidity 68    
Precipitation  
Precipitation 1.20 in 0.13 in 1.59 in (1978)
Month to date precipitation 1.24  
Year to date precipitation 9.01  
Sea Level Pressure  
Sea Level Pressure 29.80 in    
Wind  
Wind Speed 10 mph (West)    
Max Wind Speed 17 mph    
Max Gust Speed 29 mph    
Visibility 7 miles    
Events Rain , Thunderstorm    
T = Trace of Precipitation, MM = Missing Value Source: NWS Daily Summary

Daily Weather History Graph

Daily Weather History Graph

Search for Another Location

Airport:

Trip Planner

Search our weather history database for the weather conditions in past years. The results will help you decide how hot, cold, wet, or windy it might be!

Date:

Astronomy

Apr. 10, 2013 Rise Set
Actual Time 6:48 AM CDT 7:46 PM CDT
Civil Twilight 6:22 AM CDT 8:13 PM CDT
Nautical Twilight 5:50 AM CDT 8:44 PM CDT
Astronomical Twilight 5:18 AM CDT 9:17 PM CDT
Moon 6:45 AM CDT (4/10) 8:21 PM CDT (4/10)
Length of Visible Light 13h 51m
Length of Day
12h 58m
Waxing Crescent, 0% of the Moon is Illuminated
Apr 10
Waxing Crescent
Apr 18
First Quarter
Apr 25
Full
May 2
Last Quarter
May 9
New

Hourly Weather History & Observations

Time (CDT) Temp. Windchill Dew Point Humidity Pressure Visibility Wind Dir Wind Speed Gust Speed Precip Events Conditions
12:15 AM 68.0 °F - 59.0 °F 73% 29.75 in 10.0 mi South 9.2 mph - N/A   Clear
12:35 AM 69.8 °F - 59.0 °F 68% 29.75 in 10.0 mi South 9.2 mph - N/A   Clear
12:55 AM 68.0 °F - 59.0 °F 73% 29.76 in 10.0 mi South 9.2 mph - N/A   Mostly Cloudy
1:15 AM 69.8 °F - 60.8 °F 73% 29.73 in 10.0 mi SSE 11.5 mph - N/A   Mostly Cloudy
1:35 AM 69.8 °F - 60.8 °F 73% 29.72 in 10.0 mi South 13.8 mph 21.9 mph N/A   Scattered Clouds
1:55 AM 69.8 °F - 60.8 °F 73% 29.73 in 10.0 mi South 13.8 mph - N/A   Clear
2:15 AM 71.6 °F - 62.6 °F 73% 29.74 in 10.0 mi South 17.3 mph 21.9 mph N/A   Mostly Cloudy
2:35 AM 69.8 °F - 60.8 °F 73% 29.76 in 10.0 mi WSW 17.3 mph 28.8 mph N/A   Overcast
2:55 AM 59.0 °F - 53.6 °F 82% 29.77 in 1.8 mi WNW 15.0 mph 18.4 mph 0.01 in Rain Light Rain
3:15 AM 55.4 °F - 53.6 °F 94% 29.78 in 10.0 mi WNW 3.5 mph - N/A Rain Light Rain
3:35 AM 53.6 °F - 51.8 °F 94% 29.76 in 10.0 mi NW 5.8 mph - N/A Rain Light Rain
3:55 AM 53.6 °F - 51.8 °F 94% 29.76 in 10.0 mi Calm Calm - N/A Thunderstorm Scattered Clouds
4:15 AM 53.6 °F - 51.8 °F 94% 29.77 in 10.0 mi Calm Calm - N/A   Mostly Cloudy
4:35 AM 53.6 °F - 51.8 °F 94% 29.80 in 10.0 mi West 13.8 mph 23.0 mph N/A Rain , Thunderstorm Light Thunderstorms and Rain
4:55 AM 51.8 °F - 51.8 °F 100% 29.81 in 7.0 mi West 10.4 mph - 0.02 in Rain , Thunderstorm Light Thunderstorms and Rain
5:15 AM 51.8 °F - 50.0 °F 94% 29.79 in 5.0 mi WNW 6.9 mph - 0.04 in Rain , Thunderstorm Heavy Thunderstorms and Rain
5:35 AM 51.8 °F - 50.0 °F 94% 29.79 in 5.0 mi NW 8.1 mph - 0.05 in Thunderstorm Overcast
5:55 AM 50.0 °F - 50.0 °F 100% 29.79 in 5.0 mi NNW 3.5 mph - 0.05 in Rain , Thunderstorm Thunderstorms and Rain
6:15 AM 50.0 °F - 50.0 °F 100% 29.79 in 4.0 mi NNW 3.5 mph - 0.03 in Rain , Thunderstorm Thunderstorms and Rain
6:35 AM 50.0 °F - 50.0 °F 100% 29.81 in 4.0 mi West 5.8 mph - 0.06 in Rain , Thunderstorm Heavy Thunderstorms and Rain
6:55 AM 50.0 °F - 50.0 °F 100% 29.84 in 3.0 mi West 11.5 mph 20.7 mph 0.10 in Rain , Thunderstorm Heavy Thunderstorms and Rain
7:15 AM 48.2 °F - 48.2 °F 100% 29.84 in 7.0 mi WNW 8.1 mph - 0.01 in Rain , Thunderstorm Light Thunderstorms and Rain
7:35 AM 48.2 °F - 46.4 °F 93% 29.83 in 10.0 mi NW 5.8 mph - 0.02 in Rain , Thunderstorm Light Thunderstorms and Rain
7:55 AM 48.2 °F - 46.4 °F 93% 29.82 in 10.0 mi Calm Calm - 0.02 in Thunderstorm Overcast
8:15 AM 48.2 °F - 46.4 °F 93% 29.82 in 10.0 mi Calm Calm - N/A Rain Light Rain
8:35 AM 48.2 °F - 46.4 °F 93% 29.83 in 7.0 mi West 4.6 mph - 0.01 in Rain Rain
8:55 AM 46.4 °F 41.5 °F 46.4 °F 100% 29.84 in 4.0 mi WNW 10.4 mph - 0.06 in Rain , Thunderstorm Heavy Thunderstorms and Rain
9:15 AM 46.4 °F 42.4 °F 46.4 °F 100% 29.84 in 4.0 mi WNW 8.1 mph - 0.02 in Rain , Thunderstorm Light Thunderstorms and Rain
9:35 AM 46.4 °F 43.5 °F 46.4 °F 100% 29.83 in 5.0 mi NNW 5.8 mph - 0.03 in Rain , Thunderstorm Light Thunderstorms and Rain
9:55 AM 44.6 °F 39.2 °F 44.6 °F 100% 29.86 in 7.0 mi NW 10.4 mph 25.3 mph 0.05 in Rain , Thunderstorm Light Thunderstorms and Rain
10:15 AM 42.8 °F 35.4 °F 42.8 °F 100% 29.89 in 10.0 mi West 15.0 mph - N/A Thunderstorm Unknown
10:35 AM 42.8 °F 38.0 °F 41.0 °F 93% 29.84 in 10.0 mi North 8.1 mph - N/A Rain , Thunderstorm Light Thunderstorms and Rain
10:55 AM 42.8 °F 37.0 °F 41.0 °F 93% 29.81 in 2.0 mi East 10.4 mph - 0.08 in Rain , Thunderstorm Thunderstorms and Rain
11:15 AM 42.8 °F 36.2 °F 42.8 °F 100% 29.79 in 10.0 mi ENE 12.7 mph - N/A Rain , Thunderstorm Light Thunderstorms and Rain
11:35 AM 42.8 °F 40.1 °F 42.8 °F 100% 29.85 in 10.0 mi West 4.6 mph 17.3 mph N/A Thunderstorm Thunderstorm
11:55 AM 42.8 °F 39.3 °F 42.8 °F 100% 29.84 in 10.0 mi West 5.8 mph - 0.01 in Rain , Thunderstorm Thunderstorms and Rain
12:15 PM 42.8 °F 37.5 °F 42.8 °F 100% 29.84 in 10.0 mi WNW 9.2 mph - N/A Thunderstorm Unknown
12:35 PM 42.8 °F 38.0 °F 42.8 °F 100% 29.81 in 10.0 mi WNW 8.1 mph - N/A Thunderstorm Thunderstorm
12:55 PM 42.8 °F 41.1 °F 42.8 °F 100% 29.80 in 10.0 mi NNW 3.5 mph - N/A Thunderstorm Thunderstorm
1:15 PM 42.8 °F 39.3 °F 42.8 °F 100% 29.81 in 3.0 mi WNW 5.8 mph - 0.03 in Rain , Thunderstorm Thunderstorms and Rain
1:35 PM 42.8 °F 38.6 °F 42.8 °F 100% 29.81 in 7.0 mi West 6.9 mph - 0.03 in Rain , Thunderstorm Light Thunderstorms and Rain
1:55 PM 42.8 °F 39.3 °F 42.8 °F 100% 29.79 in 5.0 mi NW 5.8 mph - 0.03 in Thunderstorm Drizzle
2:15 PM 42.8 °F 37.0 °F 42.8 °F 100% 29.81 in 3.0 mi West 10.4 mph - N/A Thunderstorm Overcast
2:35 PM 42.8 °F 35.4 °F 42.8 °F 100% 29.84 in 1.5 mi West 15.0 mph - N/A Thunderstorm Unknown
2:55 PM 41.0 °F 33.1 °F 41.0 °F 100% 29.80 in 1.5 mi WNW 15.0 mph - N/A Thunderstorm Unknown
3:15 PM 41.0 °F 33.5 °F 41.0 °F 100% 29.80 in 7.0 mi West 13.8 mph - N/A Thunderstorm Thunderstorm
3:35 PM 41.0 °F 35.8 °F 39.2 °F 93% 29.81 in 2.0 mi SSW 8.1 mph 12.7 mph 0.01 in Rain , Thunderstorm Light Thunderstorms and Rain
3:55 PM 39.2 °F 30.8 °F 37.4 °F 93% 29.77 in 0.8 mi West 15.0 mph - 0.26 in Thunderstorm Thunderstorm
4:15 PM 39.2 °F 30.2 °F 37.4 °F 93% 29.80 in 0.5 mi West 17.3 mph - 0.32 in Thunderstorm Unknown
4:35 PM 39.2 °F 32.0 °F 37.4 °F 93% 29.76 in 7.0 mi NW 11.5 mph - 0.36 in Rain , Thunderstorm Light Thunderstorms and Rain
4:55 PM 39.2 °F 30.2 °F 37.4 °F 93% 29.78 in 10.0 mi West 17.3 mph 23.0 mph 0.39 in Rain , Thunderstorm Thunderstorms and Rain
5:15 PM 37.4 °F 32.8 °F 37.4 °F 100% 29.81 in 10.0 mi West 5.8 mph - 0.02 in Rain , Thunderstorm Thunderstorms and Rain
5:35 PM 39.2 °F 33.6 °F 37.4 °F 93% 29.79 in 5.0 mi WNW 8.1 mph - 0.06 in Rain , Thunderstorm Heavy Thunderstorms and Rain
5:55 PM 37.4 °F 32.8 °F 37.4 °F 100% 29.76 in 5.0 mi NNW 5.8 mph - 0.11 in Rain , Thunderstorm Thunderstorms and Rain
6:15 PM 39.2 °F 32.0 °F 37.4 °F 93% 29.78 in 10.0 mi West 11.5 mph - 0.01 in Rain Light Rain
6:35 PM 39.2 °F 31.6 °F 37.4 °F 93% 29.78 in 10.0 mi West 12.7 mph 16.1 mph 0.01 in Rain Light Rain
6:55 PM 39.2 °F 33.6 °F 37.4 °F 93% 29.81 in 10.0 mi West 8.1 mph - 0.01 in   Light Drizzle
7:15 PM 37.4 °F 29.3 °F 37.4 °F 100% 29.80 in 7.0 mi West 12.7 mph 17.3 mph N/A   Overcast
7:35 PM 37.4 °F 30.8 °F 37.4 °F 100% 29.82 in 4.0 mi West 9.2 mph - N/A   Overcast
7:55 PM 37.4 °F 28.5 °F 37.4 °F 100% 29.80 in 4.0 mi WNW 15.0 mph - N/A   Overcast
8:15 PM 37.4 °F 28.9 °F 35.6 °F 93% 29.80 in 10.0 mi West 13.8 mph 18.4 mph N/A   Overcast
8:35 PM 37.4 °F 28.9 °F 35.6 °F 93% 29.80 in 7.0 mi West 13.8 mph - N/A   Overcast
8:55 PM 35.6 °F 27.5 °F 35.6 °F 100% 29.81 in 10.0 mi West 11.5 mph - N/A   Overcast
9:15 PM 35.6 °F 27.1 °F 35.6 °F 100% 29.82 in 10.0 mi West 12.7 mph - N/A   Overcast
9:35 PM 35.6 °F 27.5 °F 35.6 °F 100% 29.82 in 10.0 mi West 11.5 mph - N/A   Overcast
9:55 PM 35.6 °F 28.6 °F 35.6 °F 100% 29.83 in 10.0 mi West 9.2 mph - N/A   Overcast
10:15 PM 35.6 °F 28.6 °F 35.6 °F 100% 29.84 in 10.0 mi West 9.2 mph 16.1 mph N/A   Overcast
10:35 PM 35.6 °F 27.1 °F 35.6 °F 100% 29.85 in 7.0 mi West 12.7 mph - N/A   Overcast
10:55 PM 35.6 °F 27.1 °F 35.6 °F 100% 29.86 in 4.0 mi West 12.7 mph 17.3 mph N/A   Overcast
11:15 PM 35.6 °F 25.9 °F 35.6 °F 100% 29.86 in 4.0 mi West 16.1 mph - N/A   Overcast
11:35 PM 35.6 °F 26.6 °F 35.6 °F 100% 29.85 in 7.0 mi West 13.8 mph 19.6 mph N/A   Overcast
11:55 PM 35.6 °F 26.6 °F 35.6 °F 100% 29.85 in 3.0 mi West 13.8 mph - N/A   Overcast